Regional Weather Roundup
Issued by NWS

Home | Current Version | Previous Version | Text Only | Print | Product List | Glossary On
Versions: 1 2 3 4 5 6 7 8 9 10 11 12 13 14 15 16 17 18 19 20 21 22 23 24 25 26 27 28 29 30 31 32 33 34 35 36 37 38 39 40 41 42 43 44 45 46 47 48 49 50
000
ASUS46 KLOX 310713
RWRCA

SOUTHERN CALIFORNIA WEATHER ROUNDUP
NATIONAL WEATHER SERVICE OXNARD CALIFORNIA
1200 AM PDT FRI JUL 31 2015

NOTE: "FAIR" INDICATES FEW OR NO CLOUDS BELOW 12,000 FEET WITH NO
SIGNIFICANT WEATHER AND/OR OBSTRUCTIONS TO VISIBILITY.

  -  STATIONS PRECEEDED BY AN ASTERISK (*) ARE NOT NWS OR FAA
     STATIONS AND ARE NOT SUBJECT TO NWS AND FAA QUALITY CONTROL.

CAZ041-042-087-310800-
LA AND ORANGE COUNTY COASTAL AREAS


CITY           SKY/WX    TMP DP  RH WIND       PRES   REMARKS
L.A. DOWNTOWN  CLEAR     70  65  84 CALM      30.03R
L.A. AIRPORT   PTCLDY    70  66  87 SW3       30.03S
LONG BEACH     CLEAR     73  65  75 NW3       30.02S

CITY           SKY/WX    TMP DP  RH WIND       PRES   REMARKS
AVALON           N/A     72 N/A N/A MISG        N/A
FULLERTON      CLEAR     73  66  78 S5        30.02S
*GETTY CENTER    N/A     66  61  82 N2          N/A
HAWTHORNE      CLEAR     71  66  84 CALM      30.03R
*LOS ALAMITOS  FAIR      70  67  90 SE2       30.03S
*REDONDO BEACH   N/A     70  65  84 CALM      30.04R
SANTA ANA      PTCLDY    70  65  84 S5        30.03S
STA MONICA APT CLEAR     70  64  81 CALM      30.03S
*UCLA            N/A    N/A N/A N/A CALM      30.01S

$$

CAZ547-548-048-310800-
LA COUNTY VALLEYS AND INLAND EMPIRE


CITY           SKY/WX    TMP DP  RH WIND       PRES   REMARKS
BURBANK        CLEAR     75  62  64 CALM      30.04R
VAN NUYS       CLEAR     76  61  59 E3        30.04R

CITY           SKY/WX    TMP DP  RH WIND       PRES   REMARKS
CORONA AIRPORT SUNNY     71  66  84 W6        30.03S
*CHATSWORTH      N/A     76  63  64 E3        30.01S
CHINO          CLEAR     74  66  76 W8        30.04S
MARCH AFB      CLEAR     75  65  72 NW7       30.05S
*NORTHRIDGE      N/A     75  59  57 NE2         N/A
ONTARIO        CLEAR     74  64  71 W7        30.04R
*PASADENA        N/A     73  64  73 VRB3        N/A
RIVERSIDE      CLEAR     75  66  73 W7        30.04R
SAN BERNARDINO NOT AVBL
*WHITEMAN AP   NOT AVBL
*WOODLAND HILL   N/A    N/A N/A N/A N1          N/A

$$

CAZ054-055-310800-
LA AND SAN BERNARDINO COUNTY MOUNTAINS


CITY           SKY/WX    TMP DP  RH WIND       PRES   REMARKS
*BIG BEAR AIRP SUNNY     55  52  88 CALM      30.39F
SANDBERG       CLEAR     69  60  73 S9          N/A

$$

CAZ028-029-059-060-099-310800-
ANTELOPE VALLEY AND SURROUNDING AREAS


CITY           SKY/WX    TMP DP  RH WIND       PRES   REMARKS
LANCASTER      CLEAR     79  63  57 S3        30.08R
PALMDALE       CLEAR     77  63  61 SW8       30.09S

CITY           SKY/WX    TMP DP  RH WIND       PRES   REMARKS
29 PALMS       PTCLDY    79  64  60 N3        30.11F
BARSTOW/DAGGET MOCLDY    85  60  42 N9        30.03R
BISHOP         CLOUDY    75  48  38 NE7       30.20F
CHINA LAKE     MOCLDY    86  50  28 S6        30.05F
EDWARDS AFB    PTCLDY    81  59  48 SW6       30.05F
MOJAVE         CLEAR     81  61  50 S3        30.11R
NEEDLES        MOCLDY    84  72  67 W7        29.93F
VICTORVILLE    CLEAR     75  64  69 CALM      30.11S

$$

CAZ039-040-310800-
VENTURA AND SANTA BARBARA COUNTY COAST


CITY           SKY/WX    TMP DP  RH WIND       PRES   REMARKS
CAMARILLO      CLEAR     71  61  70 SW3       30.02S
OXNARD AIRPORT CLEAR     67  63  87 CALM      30.02S
*POINT MUGU    CLEAR     69  63  81 CALM      30.03R
SBA APT/GOLETA CLEAR     68  63  84 SE6       30.01R
*SANTA BARBARA   N/A     69  61  77 CALM      30.09S
*VENTURA         N/A     68  62  79 CALM      29.65R

$$

CAZ044-045-310800-
VENTURA COUNTY VALLEYS


CITY           SKY/WX    TMP DP  RH WIND       PRES   REMARKS
*SIMI VALLEY     N/A     70  62  76 CALM      29.97S
*OJAI            N/A     68  62  79 CALM      29.96R
*FILLMORE        N/A     68  61  77 CALM      29.93S

$$

CAZ053-310800-
VENTURA COUNTY MOUNTAINS


CITY           SKY/WX    TMP DP  RH WIND       PRES   REMARKS

$$

CAZ034-035-036-310800-
CENTRAL COAST AND SANTA YNEZ VALLEY


CITY           SKY/WX    TMP DP  RH WIND       PRES   REMARKS
SAN LUIS OBISP CLEAR     63  59  87 NW7       30.02S
SANTA MARIA    CLEAR     64  60  87 NE5       30.03S

CITY           SKY/WX    TMP DP  RH WIND       PRES   REMARKS
*CAL POLY SLO    N/A    N/A N/A N/A W2G13       N/A
*LOMPOC        CLOUDY    64  57  77 W6        30.04S
*SANTA YNEZ    FAIR      63  55  77 SW5       30.03S

$$

CAZ037-038-051-310800-
SAN LUIS OBISPO COUNTY INTERIOR AND CUYAMA VALLEY


CITY           SKY/WX    TMP DP  RH WIND       PRES   REMARKS
*CUYAMA          N/A     76  57  50 CALM      29.92R
PASO ROBLES    CLEAR     72  53  51 W9        30.00S

$$

CAZ032-033-061-310800-
SOUTHERN DESERTS


CITY           SKY/WX    TMP DP  RH WIND       PRES   REMARKS
BLYTHE         NOT AVBL
IMPERIAL       CLEAR     89  66  46 W6        29.88R HX  91
PALM SPRINGS   CLEAR     92  64  39 W6        29.93F HX  93
THERMAL        CLEAR     89  67  47 N7        29.86F HX  92

$$

ELSEWHERE ACROSS THE WESTERN UNITED STATES AND MEXICO


CITY           SKY/WX    TMP DP  RH WIND       PRES   REMARKS
DENVER, CO     MOCLDY    69  52  54 S15       30.33S
GRAND CANYON,  CLOUDY    65  47  52 CALM      30.40S
HONOLULU, HI   PTCLDY    82  70  65 NE18      29.97R
KAHULUI, MAUI  PTCLDY    81  72  74 NE16      29.98R
LAKE TAHOE, CA PTCLDY    64  43  46 S3        30.35F
LAS VEGAS, NV  CLOUDY    92  52  25 SW10      29.98F
MAMMOTH LAKES, LGT RAIN  64  41  42 S9        30.46S
MEXICO CITY, M PTCLDY    61  48  63 NW9       30.41F
PHOENIX, AZ    CLOUDY    97  59  28 W5        29.92R HX  96
PORTLAND, OR   CLEAR     79  55  43 NW6       29.99R
RENO, NV       MOCLDY    83  35  18 CALM      30.20R
SALT LAKE CITY PTCLDY    68  40  35 CALM      30.22R
SAN DIEGO, CA  CLOUDY    71  64  78 CALM      30.05S
SAN FRANCISCO, PTCLDY    61  57  87 W13       30.02R
SAN JOSE, CA   MOCLDY    65  60  84 NW7       30.01S
SEATTLE, WA    CLEAR     77  49  37 N10       30.05S
TIJUANA, MEX   MOCLDY    68  61  77 W6        30.06F

$$

STATION/POSITION TIME  TEMP    WIND        PRES    VSBY  WAVE
                       AIR SEA DIR/SP/G                  HT/PER
                 (UTC) (F)     (DEG/KT/KT) (MB)    (MI)  (FT/S)
POINT ARGUELLO B NOT AVBL
WEST SANTA BARBA 0650   64 65  320/ 17/ 19 1015.0F         4/15
POINT CONCEPTION NOT AVBL
EAST SANTA BARBA 0700   65 68  220/ 10/ 12 1016.8R
SANTA MONICA BAY 0650   69 74     CALM     1016.5R         3/15



USA.gov is the U.S. government's official web portal to all federal, state and local government web resources and services.